Regional Weather Roundup
Issued by NWS Newport/Morehead, NC

Current Version | Previous Version | Graphics & Text | Print | Product List | Glossary Off
Versions: 1 2 3 4 5 6 7 8 9 10 11 12 13 14 15 16 17 18 19 20 21 22 23 24 25 26 27 28 29 30 31 32 33 34 35 36 37 38 39 40 41 42 43 44 45 46 47 48 49 50

000
ASUS42 KMHX 220525
RWRMHX
WEATHER ROUNDUP FOR EASTERN NORTH CAROLINA
NATIONAL WEATHER SERVICE NEWPORT/MOREHEAD CITY NC
100 AM EDT SAT JUL 22 2017

NOTE: "FAIR" INDICATES FEW OR NO CLOUDS BELOW 12,000 FEET
WITH NO SIGNIFICANT WEATHER AND/OR OBSTRUCTIONS TO VISIBILITY

NCZ015>017-031-032-045>047-102-103-220600-
NORTH COAST

CITY           SKY/WX    TMP DP  RH WIND       PRES   REMARKS
EDENTON        CLEAR     82  76  80 SW6       29.97F
ELIZABETH CITY PTCLDY    80  77  90 SW9       29.96S
KITTY HAWK     PTCLDY    81  73  76 SW8       29.96S
MANTEO         PTCLDY    80  75  85 SW12      29.97F

$$

NCZ045>047-081-094-103-104-220600-
CENTRAL COAST

CITY           SKY/WX    TMP DP  RH WIND       PRES   REMARKS
FRISCO         CLOUDY    78  74  87 SW12      30.00S

$$

NCZ095-097-098-100-101-220600-
SOUTHERN COAST

CITY           SKY/WX    TMP DP  RH WIND       PRES   REMARKS
BEAUFORT       CLEAR     82  79  90 SW10      30.01S
CEDAR ISLAND   NOT AVBL
JACKSONVILLE   PTCLDY    78  76  93 SW7       30.00S
PINEY ISLAND   CLEAR    N/A N/A N/A SW10G20   30.00S
WILMINGTON     CLEAR     79  76  90 SW9       30.01S


$$

NCZ011>013-027>030-043-044-078>080-089-090>093-098-220600-
COASTAL PLAIN

CITY           SKY/WX    TMP DP  RH WIND       PRES   REMARKS
AHOSKIE          N/A     76  73  88 CALM      29.96F
CLINTON        PTCLDY    78  75  89 SW3       30.00F
ELIZABETHTOWN  NOT AVBL
GOLDSBORO      CLOUDY    79  79  98 S6        29.98R
GREENVILLE     PTCLDY    81  73  78 SW8       30.00S
HAVELOCK       NOT AVBL
KENANSVILLE    CLOUDY    77  73  88 CALM      30.00S
KINSTON        MOCLDY    79  73  80 S8        30.00S
NEW BERN       NOT AVBL
RICHLANDS      CLEAR     77  74  90 S8        30.01F
ROCKY MOUNT    CLOUDY    76  73  91 S5        29.98S
WASHINGTON     CLOUDY    80  73  78 SW7       29.99S
WHITEVILLE     CLEAR     78  74  88 CALM      30.01S

$$

AMZ130-135-150-152-154-156-158-170-250-252-270-ANZ085-086-088-633-658-670-220600-
MARINE OBSERVATIONS

STATION/POSITION TIME  TEMP    WIND        PRES    WAVE   SWELL
                       AIR SEA DIR/SP/G            HT/PER HT/PER
                 (UTC) (F)     (DEG/KT/KT) (MB)    (FT/S) (FT/S)
CHESAPEAKE LIGHT NOT AVBL
64 E VA BEACH    0450   81 80  230/ 14/ 17 1014.5    4/ 5   2/ 9
DUCK             0500   83 60  230/ 15/ 18 1014.2
2 E DUCK         0500      63                N/A     2/13
OREGON INLET     0500   83 79  220/ 18/ 21 1014.8
13E OREGON INLT  0448      81                N/A     3/ 5   2/ 9
HATTERAS CG      0500   78 78  230/ 10/ 12 1015.7
DIAMOND BUOY     0450   83 84  230/ 19/ 25 1015.7    5/ 4   2/10
CAPE LOOKOUT     0500   81     240/ 11/ 15 1015.9
BEAUFORT LAB     0500   81 81  230/  4/ 11 1015.6
30 SE NEW RVR IN 0508   81 81  240/ 14/ 17 1016.5
30 SE NEW RVR IN 0513      81                N/A     4/ 4   2/11
27 SE WRIGHTSVLE 0508   82 81  220/ 14/ 19 1016.3
5 SE WRIGHTSVLE  0508   81 80  220/  8/ 12 1016.1
225 S CAPE HAT   0450   82 83  220/ 14/ 17 1018.5    4/10   3/10
41 SE CHARLESTON 0510   83 84  210/ 12/ 14 1016.5

$$




USA.gov is the U.S. government's official web portal to all federal, state and local government web resources and services.